Location: Newark
(25.3833°N, 97.4000°E)
Time: 18:23:48
(UTC+00:00)

N. Korean satellite - Visible Passes

Search period start: 14 December 2019 00:00
Search period end: 24 December 2019 00:00
Orbit: 455 x 507 km, 97.2° (Epoch: 13 December)

Date Brightness Start Highest point End Pass type
(mag) Time Alt. Az. Time Alt. Az. Time Alt. Az.
14 Dec 10.0 22:18:55 10° ENE 22:19:56 11° E 22:20:57 10° ESE visible
15 Dec 6.5 23:24:33 10° N 23:27:56 56° WNW 23:31:16 10° SSW visible
16 Dec 9.5 11:25:19 10° SSW 11:28:14 22° W 11:31:09 10° NW visible
16 Dec 7.4 22:59:10 10° NNE 23:02:31 51° E 23:05:50 10° S visible
17 Dec 9.3 22:34:27 10° NE 22:37:02 20° E 22:39:36 10° SE visible
18 Dec 7.3 23:41:52 10° NNW 23:44:52 29° WNW 23:47:51 10° SW visible
19 Dec 10.1 11:43:45 10° WSW 11:45:20 12° W 11:46:56 10° WNW visible
19 Dec 6.3 23:16:06 10° N 23:19:31 79° WNW 23:22:55 10° SSW visible
20 Dec 9.0 11:16:38 10° SSW 11:19:51 28° W 11:23:02 10° NW visible
20 Dec 8.1 22:50:53 10° NNE 22:54:05 36° E 22:57:15 10° SSE visible
21 Dec 9.7 22:26:31 10° ENE 22:28:34 15° E 22:30:37 10° SE visible
22 Dec 6.9 23:33:16 10° N 23:36:28 38° WNW 23:39:40 10° SW visible
23 Dec 9.8 11:34:36 10° SW 11:36:55 16° W 11:39:13 10° WNW visible
23 Dec 6.6 23:07:40 10° NNE 23:11:05 75° E 23:14:29 10° S visible
